PSLV R/B, 57755

Orbit data source: Space-Track

PSLV R/B, 57755 is space debris in HEO originally from a launch on Sat, 02 Sep 2023 UTC launched from the Sirharikota (SRI). Debris objects in space refer to the collection of defunct objects orbiting the Earth. Examples of debris include non-operational satellites, rocket bodies, and fragments generated from explosions, collisions, or faulty payload assembly.

Loading next visibility...
Identifier
57755, 2023-132B
Orbit
HEO
Country
Flag of ININ / IND
Related business
Manufacturer
VSSC/LPSC
Mission
Spacecraft
Bus & Motor
PS-4DL, Unknown motor
Mass
920 kg wet, 920 kg dry
Launch date (UTC)
2023-09-02 (3 years ago)
Launch vehicle
Unknown
Launch site
Sirharikota (SRI)
Object type
Payload
Rocket body
Debris
Shape & HBR
Cyl + Cyl + 2 Nozzle, 1.5 m
Radar Cross Section
3.727 m², Large (>1 m²)

Expand to show TLE details & history
Last TLE update: 2 days ago

TLE from 2 days ago
0 PSLV R/B
1 57755U 23132B   26171.29511663  .00027947  00000-0  10869-2 0  9995
2 57755  19.1487 168.8462 5605524 254.2216  39.8968  4.72373207 45125
Epoch: 2026-06-20T07:04Z
TLE epoch observation values (Epoch: 2026-06-20T07:04:58.076Z)
Latitude
-0.00015°
Longitude
154.06687°
Altitude
5,755.111 km
Speed
6.256 km/s
True Right ascension
11h 15m 16s
True Declination
0° 00' 01"
Sunlit
Object was in daylight at epoch
Visualization orbit readout
Latitude
Unknown
Longitude
Unknown
Altitude
Unknown
Speed
Unknown
Apparent Right ascension
Unknown
Apparent Declination
Unknown
Sunlit
N/A
Visualization observer readout
Local Sidereal Time
21:31:33
Azimuth
Unknown
Elevation
Unknown
Doppler factor
Unknown
Orbital elements
Apogee altitude
17,043.42 km
Perigee altitude
217.314 km
Semi-major axis
15,008.504 km
Eccentricity
0.56055
Inclination
19.1487°
RAAN
168.8462°
Arg. of periapsis
254.2216°
True anomaly
105.78383°
Mean anomaly
39.8968°
Eccentric anomaly
70.09543°
Mean motion
1.18042 °/min
Orbital period
304.98 mins
BSTAR
0.0010869
Loading maneuver chart data...
Computing Atmospheric mass density...
Loading historical data...
Loading historical data...
Loading historical data...
Loading historical data...
Loading historical data...
Loading historical data...
Loading historical data...
Other satellites on launch #132 in the year 2023 (2023-09-02 UTC)

Documentation

Showing up to 5 results
|